| time (UTC) | temp F | wind direction | speed knots | gust knots | rain 1hr in | rain 24hr in | rain mn in | humidity % | barometer mb |
| 20260504223028 | 54 | 16 | 1.7 | 4.3 | 0.00 | 0.00 | 0.00 | 82 | 1012.8 |
| 20260504222028 | 54 | 16 | 1.7 | 3.5 | 0.00 | 0.00 | 0.00 | 81 | 1012.8 |
| 20260504215025 | 56 | 46 | 1.7 | 4.3 | 0.00 | 0.00 | 0.00 | 80 | 1012.8 |
| 20260504214021 | 57 | 48 | 1.7 | 4.3 | 0.00 | 0.00 | 0.00 | 79 | 1012.8 |
| 20260504213030 | 57 | 51 | 1.7 | 5.2 | 0.00 | 0.00 | 0.00 | 79 | 1012.8 |
| 20260504212022 | 58 | 46 | 1.7 | 4.3 | 0.00 | 0.00 | 0.00 | 77 | 1012.8 |
| 20260504211020 | 58 | 39 | 2.6 | 7.0 | 0.00 | 0.00 | 0.00 | 77 | 1012.9 |
| 20260504205027 | 59 | 36 | 2.6 | 7.0 | 0.00 | 0.00 | 0.00 | 75 | 1012.9 |
| 20260504204019 | 60 | 43 | 2.6 | 7.8 | 0.00 | 0.00 | 0.00 | 75 | 1012.9 |
| 20260504203022 | 60 | 36 | 2.6 | 7.0 | 0.00 | 0.00 | 0.00 | 73 | 1012.9 |
| 20260504202031 | 61 | 43 | 2.6 | 7.8 | 0.00 | 0.00 | 0.00 | 73 | 1012.9 |
| 20260504201029 | 61 | 34 | 5.2 | 9.6 | 0.00 | 0.00 | 0.00 | 72 | 1012.5 |
| 20260504193029 | 62 | 25 | 5.2 | 9.6 | 0.00 | 0.00 | 0.00 | 70 | 1012.5 |
| 20260504192020 | 63 | 35 | 5.2 | 9.6 | 0.00 | 0.00 | 0.00 | 69 | 1012.5 |
| 20260504191027 | 63 | 351 | 4.3 | 9.6 | 0.00 | 0.00 | 0.00 | 69 | 1011.9 |
| 20260504190029 | 63 | 353 | 4.3 | 9.6 | 0.00 | 0.00 | 0.00 | 68 | 1011.9 |
| 20260504185024 | 64 | 350 | 4.3 | 9.6 | 0.00 | 0.00 | 0.00 | 66 | 1011.9 |
| 20260504184022 | 65 | 347 | 4.3 | 9.6 | 0.00 | 0.00 | 0.00 | 65 | 1011.9 |
| 20260504183028 | 67 | 351 | 5.2 | 10.4 | 0.00 | 0.00 | 0.00 | 63 | 1011.9 |
| 20260504182023 | 67 | 351 | 4.3 | 9.6 | 0.00 | 0.00 | 0.00 | 62 | 1011.9 |
| 20260504181017 | 68 | 311 | 4.3 | 10.4 | 0.00 | 0.00 | 0.00 | 60 | 1011.7 |
| 20260504180019 | 69 | 307 | 4.3 | 10.4 | 0.00 | 0.00 | 0.00 | 59 | 1011.7 |
| 20260504175019 | 69 | 306 | 4.3 | 10.4 | 0.00 | 0.00 | 0.00 | 59 | 1011.7 |
| 20260504174021 | 70 | 308 | 3.5 | 9.6 | 0.00 | 0.00 | 0.00 | 57 | 1011.7 |
| 20260504173021 | 71 | 312 | 4.3 | 10.4 | 0.00 | 0.00 | 0.00 | 56 | 1011.7 |
| 20260504171027 | 71 | 300 | 7.8 | 13.0 | 0.00 | 0.00 | 0.00 | 54 | 1011.6 |
| 20260504151030 | 77 | 286 | 9.6 | 16.5 | 0.00 | 0.00 | 0.00 | 49 | 1012.0 |
| 20260504141018 | 74 | 285 | 7.8 | 19.1 | 0.00 | 0.00 | 0.00 | 51 | 1011.9 |
| 20260504050020 | 62 | 246 | 7.0 | 12.2 | 0.00 | 0.00 | 0.00 | 68 | 1010.8 |
| 20260504045017 | 62 | 250 | 7.0 | 12.2 | 0.00 | 0.00 | 0.00 | 68 | 1010.8 |
| 20260504044024 | 62 | 253 | 6.1 | 11.3 | 0.00 | 0.00 | 0.00 | 68 | 1010.8 |
| 20260504043025 | 62 | 250 | 6.1 | 11.3 | 0.00 | 0.00 | 0.00 | 67 | 1010.8 |
| 20260504042017 | 62 | 254 | 7.0 | 11.3 | 0.00 | 0.00 | 0.00 | 66 | 1010.8 |
| 20260504041016 | 63 | 255 | 4.3 | 12.2 | 0.00 | 0.00 | 0.00 | 64 | 1010.8 |
| 20260504035020 | 63 | 251 | 4.3 | 12.2 | 0.00 | 0.00 | 0.00 | 60 | 1010.8 |
| 20260504034023 | 63 | 256 | 4.3 | 11.3 | 0.00 | 0.00 | 0.00 | 60 | 1010.8 |
| 20260504033020 | 63 | 251 | 4.3 | 12.2 | 0.00 | 0.00 | 0.00 | 59 | 1010.8 |
| 20260504032027 | 63 | 256 | 5.2 | 12.2 | 0.00 | 0.00 | 0.00 | 58 | 1010.8 |
| 20260504031016 | 63 | 275 | 7.0 | 12.2 | 0.00 | 0.00 | 0.00 | 58 | 1010.5 |
| 20260504030016 | 64 | 264 | 7.0 | 12.2 | 0.00 | 0.00 | 0.00 | 57 | 1010.5 |
| 20260504025020 | 64 | 265 | 7.8 | 13.0 | 0.00 | 0.00 | 0.00 | 57 | 1010.5 |
| 20260504024026 | 64 | 275 | 7.8 | 13.0 | 0.00 | 0.00 | 0.00 | 55 | 1010.5 |
| 20260504022020 | 64 | 264 | 7.8 | 13.0 | 0.00 | 0.00 | 0.00 | 55 | 1010.5 |
| 20260504021023 | 63 | 284 | 10.4 | 17.4 | 0.00 | 0.00 | 0.00 | 54 | 1010.2 |
| 20260504020027 | 64 | 285 | 10.4 | 18.2 | 0.00 | 0.00 | 0.00 | 54 | 1010.2 |
| 20260504015015 | 65 | 284 | 10.4 | 17.4 | 0.00 | 0.00 | 0.00 | 52 | 1010.2 |
| 20260504013018 | 66 | 286 | 10.4 | 17.4 | 0.00 | 0.00 | 0.00 | 50 | 1010.2 |
| 20260504012029 | 66 | 280 | 10.4 | 18.2 | 0.00 | 0.00 | 0.00 | 49 | 1010.2 |
| 20260504011027 | 67 | 281 | 9.6 | 16.5 | 0.00 | 0.00 | 0.00 | 48 | 1010.2 |
| 20260504010020 | 67 | 279 | 10.4 | 17.4 | 0.00 | 0.00 | 0.00 | 47 | 1010.2 |
| 20260504003024 | 67 | 280 | 10.4 | 17.4 | 0.00 | 0.00 | 0.00 | 46 | 1010.2 |
| 20260504002030 | 68 | 280 | 10.4 | 17.4 | 0.00 | 0.00 | 0.00 | 46 | 1010.2 |
| 20260504001026 | 68 | 254 | 6.1 | 9.6 | 0.00 | 0.00 | 0.00 | 46 | 1010.1 |
| 20260503235031 | 68 | 261 | 6.1 | 10.4 | 0.00 | 0.00 | 0.00 | 46 | 1010.1 |
| 20260503234021 | 68 | 264 | 6.1 | 10.4 | 0.00 | 0.00 | 0.00 | 46 | 1010.1 |
| 20260503233030 | 66 | 265 | 6.1 | 9.6 | 0.00 | 0.00 | 0.00 | 49 | 1010.1 |
| 20260503232019 | 65 | 260 | 6.1 | 10.4 | 0.00 | 0.00 | 0.00 | 50 | 1010.1 |
| 20260503231018 | 65 | 185 | 1.7 | 6.1 | 0.00 | 0.00 | 0.00 | 51 | 1010.3 |
| 20260503225023 | 65 | 186 | 1.7 | 6.1 | 0.00 | 0.00 | 0.00 | 51 | 1010.3 |